Regional Weather Roundup
Issued by NWS

Home | Current Version | Previous Version | Text Only | Print | Product List | Glossary On
Versions: 1 2 3 4 5 6 7 8 9 10 11 12 13 14 15 16 17 18 19 20 21 22 23 24 25 26 27 28 29 30 31 32 33 34 35 36 37 38 39 40 41 42 43 44 45 46 47 48 49 50
000
ASUS43 KMPX 220010
RWRMN
WEATHER ROUNDUP FOR MINNESOTA
NATIONAL WEATHER SERVICE TWIN CITIES/CHANHASSEN MN
700 PM CDT MON AUG 21 2017


NOTE: "FAIR" INDICATES FEW OR NO CLOUDS BELOW 12,000 FEET WITH NO
SIGNIFICANT WEATHER AND/OR OBSTRUCTIONS TO VISIBILITY. N/A MEANS
CURRENT SKY AND/OR WEATHER CONDITIONS ARE NOT AVAILABLE.

MNZ060>063-068>070-220100-
   Twin Cities Metro

CITY           SKY/WX    TMP DP  RH WIND       PRES   REMARKS
TWIN CITIES    CLOUDY    70  65  84 W7        29.88R
6HR MIN TEMP:  69; 6HR MAX TEMP:  79; 6HR PCP:  0.19;

ST PAUL        CLOUDY    70  67  90 VRB6      29.88S
CRYSTAL        CLOUDY    70  63  78 SW8       29.86F
BLAINE         CLOUDY    72  66  83 SW8       29.87F
LAKEVILLE      CLOUDY    66  66 100 W7        29.88R
EDEN PRAIRIE   CLOUDY    70  66  87 W6        29.87R
6HR MIN TEMP:  69; 6HR MAX TEMP:  78; 6HR PCP:  0.16;

SOUTH ST PAUL  CLOUDY    69  68  96 CALM      29.88R
LAKE ELMO      CLOUDY    68  64  88 W3        29.89R
$$
MNZ001>005-007-008-013>017-022>024-027-028-220100-
   Northwest Minnesota

CITY           SKY/WX    TMP DP  RH WIND       PRES   REMARKS
BEMIDJI        CLOUDY    63  59  88 VRB3      29.90S
HALLOCK        MOSUNNY   70  54  56 N9G16     29.90R
ROSEAU           N/A     66  57  72 CALM      29.90S
WARROAD        CLOUDY    63  57  82 VRB6      29.90F
THIEF RVR FALL PTSUNNY   70  51  51 W10       29.90S
CROOKSTON      MOSUNNY   72  54  53 N9        29.89F
FOSSTON        CLOUDY    66  55  68 N6        29.90S
DETROIT LAKES  SUNNY     70  61  73 NW7       29.90S
MOORHEAD       PTSUNNY   73  57  56 NW15G22   29.89S
PARK RAPIDS    CLOUDY    71  60  68 CALM      29.86F
MAHNOMEN       RAIN      67  60  78 N5        29.88S
$$
MNZ006-009>011-018-025>026-220100-
   North Central Minnesota

CITY           SKY/WX    TMP DP  RH WIND       PRES   REMARKS
BAUDETTE       LGT RAIN  62  58  86 S3        29.89R
FLAG ISLAND    PTSUNNY   63  55  77 NE6       29.89S
WASKISH        CLOUDY    57  55  94 SE6       29.89F
BIG FORK       CLOUDY    63  57  82 N3        29.90R
LONGVILLE      PTSUNNY   70  61  73 CALM      29.85F
GRAND RAPIDS   PTSUNNY   65  59  81 E3        29.87F
ORR            LGT RAIN  59  55  88 CALM      29.88S
COOK           PTSUNNY   61  57  88 CALM      29.89F
WALKER         CLOUDY    65  58  78 N3        29.88S
$$
MNZ012-019>021-037-220100-
   Northeast Minnesota

CITY           SKY/WX    TMP DP  RH WIND       PRES   REMARKS
DULUTH         LGT RAIN  64  60  87 NE6       29.85F
6HR MIN TEMP:  63; 6HR MAX TEMP:  66; 6HR PCP: TRACE;

ELY            CLOUDY    63  57  82 CALM      29.91F
HIBBING        CLOUDY    61  58  90 NE3       29.87F
EVELETH        CLOUDY    60  54  80 CALM      29.89F
DULUTH HARBOR  CLOUDY    66  61  82 N13       29.85F
TWO HARBORS    CLOUDY    66  61  82 CALM      29.86F
SILVER BAY     CLOUDY    64  59  82 CALM      29.87F
GRAND MARAIS     N/A     65  56  72 CALM      29.88S
G MARAIS ARPRT CLOUDY    61  52  72 CALM      29.93S
$$
MNZ029>031-032-039>041-046>048-054>057-064-220100-
   West Central Minnesota

CITY           SKY/WX    TMP DP  RH WIND       PRES   REMARKS
FERGUS FALLS   MOSUNNY   72  61  68 NW14      29.88S
WHEATON        SUNNY     73  59  60 NW10      29.91S
MORRIS         SUNNY     73  63  68 NW13      29.90R
ALEXANDRIA     CLOUDY    68  62  81 W7        29.90S
ELBOW LAKE     PTSUNNY   70  62  75 NW8       29.89S HAZE
WADENA         CLOUDY    66  63  88 W5        29.87F
GLENWOOD       MOSUNNY   70  63  78 W8        29.90S
APPLETON       MOSUNNY   72  61  68 NW9       29.91R
BENSON         MOSUNNY   72  64  78 W7        29.91R
ORTONVILLE     SUNNY     73  61  64 MISG      29.91S
MADISON        MOSUNNY   73  64  73 NW6       29.92R
WILLMAR        PTSUNNY   72  66  83 SW7       29.90S
$$
MNZ033>034-036-042>043-049>051-058-059-220100-
   Central Minnesota

CITY           SKY/WX    TMP DP  RH WIND       PRES   REMARKS
ST CLOUD       CLOUDY    69  67  93 S6        29.87F
6HR MIN TEMP:  64; 6HR MAX TEMP:  69; 6HR PCP: TRACE;

SAUK CENTRE    MOCLDY    68  65  90 SW6       29.89R
PAYNESVILLE    CLOUDY    69  66  89 SW7       29.89F
AITKIN         CLOUDY    68  64  88 S3        29.83F
PINE RIVER     CLOUDY    66  61  82 W3        29.89F
BRAINERD       CLOUDY    70  63  78 S8        29.85F
STAPLES        CLOUDY    68  63  83 W6        29.86F
LONG PRAIRIE   PTSUNNY   66  63  88 S6        29.88F
LITTLE FALLS   CLOUDY    68  61  77 S10       29.87F
LITCHFIELD     CLOUDY    70  66  88 SW5       29.89F
BUFFALO        CLOUDY    70  64  81 SW8       29.89F
MAPLE LAKE     CLOUDY    71  66  84 SW8       29.89S
HUTCHINSON     MOSUNNY   70  65  86 SW7       29.91S
$$
MNZ037-044-045-052-053-220100-
   East Central Minnesota

CITY           SKY/WX    TMP DP  RH WIND       PRES   REMARKS
PRINCETON      CLOUDY    72  66  83 SW5       29.88F
MORA           CLOUDY    70  64  83 SW6       29.88F
CAMBRIDGE      CLOUDY    73  66  78 SW7       29.87F
RUSH CITY      CLOUDY    71  65  82 SW5       29.87F
MOOSE LAKE     CLOUDY    68  64  88 S5        29.83F
HINCKLEY       CLOUDY    72  68  88 S7        29.86F
CLOQUET        CLOUDY    64  59  82 CALM      29.85F
MCGREGOR       CLOUDY    70  63  78 CALM      29.85F
$$
MNZ071>073-080-081-089-090-097-098-220100-
   Southwest Minnesota

CITY           SKY/WX    TMP DP  RH WIND       PRES   REMARKS
MONTEVIDEO     MOSUNNY   72  70  94 CALM      29.92R
GRANITE FALLS  MOSUNNY   72  66  83 SW8       29.94R
CANBY          MOSUNNY   74  64  70 CALM      29.94R
MARSHALL       CLOUDY    71  65  81 W7        29.94R
REDWOOD FALLS  CLOUDY    71  65  81 SW12      29.91R
OLIVIA         MOSUNNY   70  64  83 SW9       29.90R
PIPESTONE      CLOUDY    72  66  83 SW7       29.98F
WINDOM         CLOUDY    66  63  88 SW8       29.97F
WORTHINGTON    PTSUNNY   66  63  90 SW6       29.99S
JACKSON        CLOUDY    63  63 100 W6        29.98R
TRACY          CLOUDY    72  67  84 SW7       29.97S
SLAYTON        CLOUDY    68  62  82 SW7       29.99R
$$
MNZ065>067-074>077-082>085-091>093-220100-
   South Central Minnesota

CITY           SKY/WX    TMP DP  RH WIND       PRES   REMARKS
MANKATO        CLOUDY    67  65  93 W14G22    29.91R
NEW ULM        CLOUDY    68  64  88 W12       29.92R
ST JAMES       CLOUDY    66  63  88 SW6       29.95R
FAIRMONT       CLOUDY    66  62  87 SW10      29.93R
GLENCOE        CLOUDY    69  67  93 SW12      29.90R
FARIBAULT      CLOUDY    66  64  94 S10G17    29.84R
OWATONNA       CLOUDY    66  63  88 SE17G23   29.82F
WASECA         CLOUDY    64  61  88 S8G17     29.87R
ALBERT LEA     CLOUDY    66  66 100 S10       29.86F
$$
MNZ078>079-086>088-094>096-220100-
   Southeast Minnesota

CITY           SKY/WX    TMP DP  RH WIND       PRES   REMARKS
ROCHESTER      LGT RAIN  65  64  97 S12       29.93F
6HR MIN TEMP:  65; 6HR MAX TEMP:  75; 6HR PCP:  0.52;

RED WING       LGT RAIN  70  63  78 S8G28     29.76F
STANTON        CLOUDY    68  64  86 S14G21    29.79F
DODGE CENTER   LGT RAIN  64  63  94 S13       29.84F
WINONA         CLOUDY    70  66  88 SW5       29.92F
AUSTIN         LGT RAIN  64  63  94 SE13      29.84F
PRESTON        RAIN      65  64  94 SW8       29.97F
$$
ABBREVIATIONS USED IN REMARKS
   TC - TEMPERATURES IN CELSIUS
  WCI - WIND CHILL INDEX
   HX - HEAT INDEX
  VSB - VISIBILITY
$$



USA.gov is the U.S. government's official web portal to all federal, state and local government web resources and services.